Time[GMT],current_u[cm/s](10m),current_v[cm/s](10m),current_u[cm/s](14m),current_v[cm/s](14m),current_u[cm/s](18m),current_v[cm/s](18m),current_u[cm/s](22m),current_v[cm/s](22m),current_u[cm/s](26m),current_v[cm/s](26m),current_u[cm/s](30m),current_v[cm/s](30m),current_u[cm/s](34m),current_v[cm/s](34m),current_u[cm/s](38m),current_v[cm/s](38m),current_u[cm/s](42m),current_v[cm/s](42m),current_u[cm/s](46m),current_v[cm/s](46m),current_u[cm/s](50m),current_v[cm/s](50m),current_u[cm/s](54m),current_v[cm/s](54m),current_u[cm/s](58m),current_v[cm/s](58m)
2013-10-29 21:00,-0.23,6.59,-1.26,6.92,-3.65,7.28,-0.97,6.28,3.49,2.35,5.31,3.60,2.16,-1.36,-0.45,-0.23,0.73,0.73,1.35,-0.34,1.62,0.15,1.96,2.96,1.85,4.80
2013-10-29 22:00,-0.64,8.76,-2.01,7.02,-2.41,8.05,1.15,5.43,-0.76,3.74,-2.01,3.38,-2.96,-3.45,-4.82,-0.97,-5.29,-1.52,-4.15,-2.96,-2.99,-4.81,-3.61,-1.56,-0.88,0.16
2013-10-29 23:00,,,,,,,,,,,,,,,,,,,,,,,,,,
2013-10-30 01:00,7.46,8.80,7.86,8.50,6.54,8.01,5.29,7.66,5.93,8.36,5.17,4.81,1.04,-0.01,-4.10,-3.47,-1.51,-1.99,3.64,0.00,0.86,-5.89,-0.97,-4.96,-0.52,-4.00
2013-10-30 02:00,12.34,9.57,12.61,9.34,12.30,9.35,11.53,9.86,12.00,8.95,10.19,2.19,7.09,-2.23,1.71,-3.78,5.07,-3.54,5.87,-5.60,0.86,-6.62,-0.64,-2.47,0.83,-3.61
2013-10-30 03:00,14.03,9.85,14.12,9.88,13.55,8.98,12.95,7.46,13.51,7.31,10.69,0.46,5.63,-1.51,2.98,0.13,7.55,0.50,8.56,-0.46,1.46,-2.91,-0.25,2.32,-0.92,4.31
2013-10-30 04:00,15.82,13.38,15.15,13.19,14.11,12.47,12.42,10.01,11.70,5.64,9.63,3.07,6.28,1.70,2.74,4.95,6.51,4.15,8.28,4.87,2.76,3.81,0.37,4.89,-0.53,8.38
2013-10-30 05:00,15.08,16.70,14.67,16.69,13.73,15.59,11.84,12.03,10.20,8.33,9.21,3.06,4.42,0.54,2.03,3.81,2.36,3.38,2.11,2.06,-2.17,1.04,-2.12,3.03,-3.99,5.93
2013-10-30 06:00,13.09,12.39,13.38,12.47,12.98,11.32,9.98,9.83,6.97,6.16,7.17,0.39,3.35,-0.81,4.12,1.60,2.11,6.43,2.26,4.08,1.56,1.80,-1.09,1.98,-1.84,-0.11
2013-10-30 07:00,9.11,9.58,8.43,8.35,6.06,7.15,2.88,5.19,1.21,1.59,-0.51,-2.95,-5.04,-1.65,-3.60,2.40,-4.50,5.16,-4.71,1.56,-6.36,0.78,-7.80,-0.36,-8.39,-0.85
2013-10-30 09:00,8.08,9.18,7.23,8.52,5.39,7.68,1.30,4.53,-4.04,3.21,-8.91,6.39,-11.64,7.58,-10.46,10.00,-10.23,5.91,-11.21,3.55,-11.97,8.01,-14.12,9.68,-12.51,8.06
2013-10-30 10:00,4.72,-3.75,3.89,-3.77,1.60,-4.85,-0.94,-4.33,-5.62,-1.82,-12.29,0.43,-13.52,3.61,-13.71,-0.08,-14.34,-2.24,-13.57,2.35,-12.23,6.38,-11.43,5.77,-14.30,0.16
2013-10-30 11:00,4.89,1.82,3.87,2.46,2.21,2.09,0.33,3.21,-5.02,6.26,-14.02,8.26,-10.90,5.72,-10.63,2.26,-10.46,2.00,-10.76,7.42,-6.22,10.08,-5.61,9.42,-3.81,5.67
2013-10-30 12:00,5.19,-2.15,5.41,-1.46,4.51,-1.93,2.89,-1.36,0.21,5.06,-5.94,6.93,-4.41,5.60,-5.60,0.68,-7.95,1.26,-5.33,5.54,-2.92,10.19,0.53,4.31,1.78,1.76
2013-10-30 13:00,1.51,-3.83,1.50,-3.42,0.69,-3.86,-0.16,-3.79,-0.26,3.46,-3.25,9.16,-2.90,6.87,-2.61,1.85,-4.31,0.53,-3.93,6.47,-5.24,8.48,-4.26,1.80,-2.79,-0.07
2013-10-30 14:00,5.80,0.83,5.81,1.15,5.56,2.01,2.91,2.91,2.62,5.02,7.79,8.37,6.83,7.37,5.88,2.73,4.39,1.36,4.33,6.65,1.83,8.85,-0.80,5.70,-1.18,2.68
2013-10-30 15:00,5.10,6.87,5.03,7.48,5.71,7.67,4.88,8.37,4.21,8.18,8.97,9.34,14.79,6.11,14.89,4.68,8.58,3.81,5.85,5.73,3.43,4.73,-0.10,4.34,-2.45,3.46
2013-10-30 16:00,9.83,6.36,9.50,6.78,8.78,7.10,7.91,6.53,6.52,6.65,11.68,6.78,17.33,4.14,15.52,0.29,13.95,1.40,14.38,3.91,11.77,1.40,7.75,0.56,2.86,0.92
2013-10-30 17:00,6.39,11.09,5.70,11.31,4.44,12.09,3.38,12.52,2.23,13.64,4.56,12.02,10.37,5.57,9.15,2.93,9.90,3.57,9.39,2.07,6.20,-0.20,0.37,3.43,-3.38,6.00
2013-10-30 18:00,,,,,,,,,,,,,,,,,,,,,,,,,,
2013-10-30 19:00,,,,,,,,,,,,,,,,,,,,,,,,,,
2013-10-30 20:00,-1.36,10.53,-2.18,11.23,-4.20,12.11,-4.44,13.29,-2.40,12.73,3.50,5.58,-1.45,-2.19,-1.12,-5.52,-1.41,-6.33,-2.63,-7.52,-7.81,-4.32,-9.04,-1.86,-7.46,-1.93
2013-10-30 21:00,-0.09,7.57,-1.74,8.97,-2.70,10.15,-3.28,10.71,-0.55,10.25,1.14,2.20,-6.16,-4.26,-7.40,-7.22,-7.67,-6.26,-10.75,-4.96,-13.39,-3.01,-11.70,-2.00,-12.62,-1.33
2013-10-30 22:00,0.49,4.09,-0.54,5.15,-1.59,5.89,-0.53,6.19,2.21,0.63,-7.45,-4.84,-16.02,-6.88,-16.13,-7.95,-16.52,-8.07,-19.25,-3.96,-19.67,-0.33,-16.94,-0.80,-16.37,-0.22
2013-10-30 23:00,4.71,2.08,3.83,2.24,3.97,3.22,5.07,-0.63,-3.61,-6.65,-13.48,-9.59,-15.33,-10.01,-14.77,-7.98,-16.15,-3.17,-19.59,-0.62,-24.14,5.46,-20.84,4.84,-15.22,1.57
2013-10-31 00:00,1.61,0.56,1.88,1.79,0.91,1.20,1.30,0.89,0.14,-3.39,-11.23,-7.28,-14.69,-10.45,-16.98,-7.89,-16.30,-2.28,-17.12,3.83,-13.18,4.96,-5.35,4.50,-6.33,2.14
2013-10-31 01:00,6.10,1.23,6.32,1.19,6.07,1.32,6.10,1.96,3.05,-0.48,-5.37,-0.50,-9.53,-4.50,-8.64,-4.35,-9.64,0.98,-9.59,2.24,-1.38,1.89,0.81,1.90,0.29,1.54
2013-10-31 02:00,6.49,6.75,6.74,6.61,6.48,7.16,6.12,6.96,4.27,5.80,0.05,6.36,-3.83,6.81,-0.98,7.42,-1.01,5.33,0.69,7.38,-1.09,6.35,-2.04,4.93,1.21,1.59
2013-10-31 03:00,9.84,8.13,9.74,8.10,9.22,8.47,8.11,7.63,5.94,7.22,4.83,10.02,4.63,10.69,7.57,11.33,4.55,9.52,3.61,7.38,-2.96,8.51,-4.70,6.25,-2.33,4.85
2013-10-31 04:00,12.57,9.12,13.10,8.75,13.07,8.84,12.48,9.09,8.38,8.85,6.08,8.19,11.64,6.56,13.82,9.48,6.04,8.70,1.85,8.44,-1.49,11.01,-1.52,8.20,-1.65,6.50
2013-10-31 05:00,12.41,10.42,12.72,11.14,12.97,10.27,11.24,9.78,10.25,6.69,12.56,7.35,9.76,9.14,11.52,5.90,12.82,6.80,13.31,5.48,7.66,8.13,-0.19,7.54,-2.30,6.93
2013-10-31 06:00,8.30,11.33,7.93,11.53,8.42,11.26,8.44,10.85,6.94,11.35,4.19,10.05,6.31,7.01,9.14,7.30,12.41,6.78,12.54,5.26,10.56,4.17,4.55,6.61,0.50,7.32
2013-10-31 07:00,1.49,11.14,1.58,11.17,2.50,11.22,2.26,11.36,1.09,11.44,-2.28,11.21,0.34,5.71,4.39,4.28,9.27,5.78,8.97,4.65,5.38,1.54,-0.17,2.76,-5.73,4.39
2013-10-31 08:00,-2.74,7.74,-3.07,8.17,-2.34,8.17,-2.22,8.10,-3.50,9.30,-0.85,11.30,-3.27,5.61,0.01,2.50,5.65,0.27,6.25,0.34,2.39,-1.08,-2.87,0.95,-7.07,0.36
2013-10-31 09:00,-5.06,9.68,-5.56,9.95,-6.41,10.02,-7.02,10.68,-5.89,11.11,-2.03,11.80,-5.49,7.16,-4.78,-0.02,-0.55,-3.90,-1.33,-3.71,-7.34,-4.50,-9.17,-2.11,-12.58,-0.38
2013-10-31 10:00,-7.50,14.91,-7.77,14.42,-8.45,14.22,-9.23,14.41,-5.96,13.90,-2.95,12.47,-9.68,9.08,-9.46,0.72,-7.44,-0.89,-11.47,-1.73,-14.88,-0.73,-15.44,1.61,-15.99,0.62
2013-10-31 11:00,0.87,5.66,-0.16,5.26,0.05,5.63,0.87,6.39,2.87,4.88,-4.33,5.31,-9.60,-0.26,-9.10,-6.35,-8.65,-6.85,-13.61,-3.69,-15.96,-0.94,-18.57,-2.00,-15.05,-3.38
2013-10-31 12:00,3.69,2.72,3.64,2.92,3.25,3.53,4.61,1.32,3.57,-1.58,-2.40,-2.15,-7.92,-6.85,-9.01,-12.47,-9.40,-13.31,-10.83,-9.03,-15.63,-5.73,-18.49,-3.74,-14.57,-6.15
2013-10-31 13:00,1.41,9.97,1.14,9.79,0.90,9.93,0.73,9.05,0.41,5.11,-1.30,5.97,-6.76,2.53,-10.07,-2.99,-10.70,-3.69,-11.39,0.17,-14.22,4.24,-16.34,6.55,-14.00,5.66
2013-10-31 14:00,5.33,11.52,4.33,10.29,3.42,10.55,4.79,8.34,5.57,3.05,1.59,6.07,0.34,7.17,-3.91,5.64,-10.81,2.52,-11.69,3.41,-12.47,6.83,-10.93,8.00,-8.12,5.47
2013-10-31 15:00,13.38,12.47,13.08,11.34,12.97,11.00,12.20,9.32,10.53,2.81,11.80,3.49,8.26,4.55,1.45,4.37,-4.73,5.61,-7.11,7.01,-8.89,6.71,-4.63,3.46,-2.61,2.58
2013-10-31 16:00,15.28,10.93,15.10,9.01,14.61,6.37,13.91,4.09,9.98,1.82,12.72,0.63,10.90,4.06,4.82,6.06,-0.70,10.41,-1.71,10.33,-5.17,8.61,-4.77,3.94,-4.07,1.12
2013-10-31 17:00,17.23,9.21,16.66,6.13,17.68,1.84,19.42,-0.98,16.29,-3.13,9.62,-5.25,9.80,-2.60,9.16,3.98,4.58,10.16,2.69,12.01,2.75,10.36,0.75,4.27,-0.99,-1.64
2013-10-31 18:00,16.89,10.77,18.76,7.87,19.39,4.21,16.87,2.13,10.55,0.22,1.17,0.65,2.08,-2.53,5.86,3.14,7.82,11.92,5.16,15.00,2.93,11.55,1.94,6.28,-0.21,-0.37
2013-10-31 19:00,11.61,15.40,11.91,9.97,10.28,6.59,8.54,5.05,4.49,5.03,-2.89,7.18,-4.44,6.42,-0.51,4.33,3.44,10.14,3.67,11.87,0.65,12.25,-4.75,7.48,-3.77,1.52
2013-10-31 20:00,6.38,10.05,6.84,5.19,4.46,0.03,1.73,-3.87,-0.86,-3.89,-6.08,-0.91,-6.21,-0.12,-3.91,-1.95,0.73,0.00,2.09,2.16,-0.69,1.68,-4.57,-1.83,-4.02,-6.67
2013-10-31 21:00,-2.26,8.61,-2.42,4.82,-4.95,0.56,-7.78,-3.69,-10.60,-3.66,-13.86,0.81,-16.25,1.17,-14.53,0.62,-6.76,1.08,-3.65,1.14,-7.18,0.75,-10.66,-1.29,-9.80,-3.54
2013-10-31 22:00,-3.34,11.63,-4.47,8.70,-6.16,4.79,-9.93,1.63,-13.23,4.42,-12.61,10.95,-15.56,9.27,-15.06,6.81,-7.99,4.99,-6.51,3.13,-10.45,-0.19,-12.62,0.85,-12.83,-0.97
2013-10-31 23:00,-2.53,5.93,-4.69,3.65,-6.37,0.46,-8.36,-3.13,-9.86,1.02,-8.11,7.24,-12.88,4.63,-11.06,4.11,-7.94,2.30,-9.02,-0.09,-13.01,0.74,-14.90,0.10,-13.84,-1.79
2013-11-01 00:00,-3.26,3.02,-6.44,1.07,-10.33,-1.71,-12.28,-2.17,-9.48,4.04,-15.66,5.29,-17.35,5.74,-13.24,1.92,-11.63,-3.34,-14.12,-3.01,-16.18,1.29,-20.65,0.53,-19.31,-2.31
2013-11-01 01:00,-1.27,2.97,-6.15,-0.31,-8.78,-2.41,-4.81,2.99,-3.32,5.40,-7.90,12.30,-10.27,7.15,-11.48,-4.96,-14.52,-8.85,-15.64,-4.59,-15.52,-0.29,-17.58,2.55,-17.06,2.18
2013-11-01 02:00,-1.72,7.10,-3.57,3.76,-5.06,4.58,-3.85,6.91,-4.22,5.66,-3.75,9.43,-6.47,12.40,-11.73,3.19,-16.67,-3.53,-17.96,-3.38,-16.48,1.62,-16.82,3.50,-13.34,1.17
2013-11-01 03:00,3.84,3.29,3.62,2.60,2.00,5.36,1.88,5.43,-0.28,4.60,3.18,4.14,4.32,4.15,-2.90,1.04,-10.38,-2.98,-15.76,-5.25,-16.92,-1.94,-14.63,-0.14,-12.13,-3.79
2013-11-01 04:00,13.65,2.46,11.91,2.37,8.43,3.98,8.08,6.27,5.77,3.84,6.01,1.52,7.26,4.06,1.40,3.11,-4.97,-0.07,-8.68,-1.66,-8.78,-0.96,-6.70,-2.03,-6.33,-7.33
2013-11-01 05:00,15.47,13.90,14.42,13.19,12.05,15.31,9.83,19.05,9.03,18.92,7.66,14.27,11.05,9.72,6.15,9.04,0.14,12.21,-0.88,13.58,-2.50,11.98,-3.61,11.14,-2.30,5.48
2013-11-01 06:00,11.59,14.35,9.99,14.51,9.42,13.94,7.20,15.17,6.48,18.40,8.16,15.45,9.21,8.15,4.36,5.10,-2.81,6.89,-7.59,9.06,-9.89,11.63,-9.95,7.86,-6.73,3.17
2013-11-01 07:00,11.32,14.58,10.88,13.94,10.41,12.66,9.23,13.15,5.69,16.09,3.35,16.98,2.52,8.63,0.09,4.40,-3.59,7.81,-8.20,10.45,-9.10,9.25,-11.46,7.32,-11.43,4.32
2013-11-01 08:00,1.94,7.01,1.11,5.21,-0.75,4.78,-2.03,6.70,-1.89,9.13,-2.74,11.38,-3.45,5.88,-5.03,-2.07,-9.43,-3.75,-10.41,-0.70,-9.84,0.20,-13.30,2.12,-14.49,-5.71
2013-11-01 09:00,3.81,9.21,2.48,7.68,0.75,7.18,-0.89,10.36,-1.39,14.27,-2.10,13.86,-4.83,9.23,-8.75,1.13,-9.46,-0.01,-7.21,-0.61,-8.36,-0.94,-12.68,-1.87,-14.31,-5.98
2013-11-01 10:00,-1.02,7.20,-1.34,7.21,-4.09,7.36,-7.67,9.35,-7.95,11.04,-8.86,9.84,-13.55,3.71,-17.85,-3.77,-15.19,-5.08,-13.61,-3.69,-17.40,-2.81,-22.20,-2.41,-20.65,-7.07
2013-11-01 11:00,-1.23,7.55,-6.27,6.63,-10.68,7.86,-12.52,7.75,-13.95,8.38,-15.06,7.54,-21.72,0.64,-24.36,-4.28,-20.55,-3.81,-19.40,0.16,-21.12,3.62,-28.05,4.96,-28.90,-0.07
2013-11-01 12:00,7.67,5.53,3.79,4.93,-0.84,4.75,-5.13,5.19,-6.84,4.28,-12.53,0.88,-17.69,-2.16,-13.23,-2.86,-10.37,-2.66,-13.20,-1.50,-20.65,1.26,-20.70,-0.73,-18.16,-2.71
2013-11-01 13:00,5.61,6.19,3.55,4.66,0.55,3.17,-2.72,-0.68,-7.36,-2.63,-14.38,-3.19,-21.38,-3.43,-21.65,-2.88,-21.00,-4.04,-26.34,-4.64,-29.02,-5.82,-28.66,-7.80,-21.35,-11.53
2013-11-01 14:00,8.73,11.66,9.30,8.91,8.29,9.55,7.00,8.25,1.50,7.09,-11.71,5.28,-20.64,3.76,-20.09,4.75,-21.04,5.52,-23.64,4.46,-20.46,11.51,-17.92,5.89,-20.33,-4.58
2013-11-01 15:00,15.05,6.29,14.50,6.03,12.92,6.10,11.86,6.52,2.36,5.57,-10.53,4.78,-15.69,4.66,-15.62,4.78,-15.90,2.83,-19.16,2.62,-20.55,2.74,-17.68,2.52,-15.31,-4.29
2013-11-01 16:00,28.54,1.32,28.36,0.85,25.07,0.01,18.63,0.35,6.51,2.70,-4.50,5.16,-9.70,3.36,-8.34,1.87,-9.65,2.44,-9.52,2.37,-7.35,2.78,-7.39,-1.08,-8.32,-2.91
2013-11-01 17:00,,,,,,,,,,,,,,,,,,,,,,,,,,
2013-11-01 19:00,29.43,5.84,27.66,5.85,25.68,5.49,21.08,4.48,13.81,5.52,4.30,10.39,0.79,16.46,-3.58,23.00,-8.38,24.85,-11.64,21.01,-13.06,15.81,-14.23,11.52,-9.25,7.23
2013-11-01 20:00,21.69,0.19,20.52,0.27,17.15,2.21,13.38,1.96,7.26,4.79,-1.33,9.71,-6.26,14.95,-8.27,18.33,-11.71,22.34,-16.56,20.74,-17.85,17.25,-18.94,13.81,-15.43,6.29
2013-11-01 21:00,8.51,-4.63,6.69,-4.84,3.81,-2.03,-0.03,-2.09,-3.52,-0.80,-6.93,3.84,-13.25,11.39,-13.60,13.68,-12.30,18.22,-12.55,21.99,-15.58,18.42,-18.10,13.43,-18.30,7.96
2013-11-01 22:00,0.81,-9.34,0.39,-8.63,-1.57,-7.21,-2.56,-6.66,-5.57,-3.78,-9.51,1.96,-13.73,10.52,-14.37,15.65,-13.10,14.86,-15.47,12.94,-18.50,10.82,-18.54,6.23,-16.55,-0.69
2013-11-01 23:00,-8.80,-17.92,-9.50,-15.83,-11.57,-12.26,-11.08,-10.35,-11.15,-7.57,-14.93,-1.99,-17.35,5.74,-14.10,7.09,-16.38,6.33,-22.31,7.44,-24.30,6.03,-26.65,2.24,-26.63,-5.45
2013-11-02 00:00,-14.37,-11.19,-16.15,-9.00,-19.05,-5.77,-19.90,-3.52,-20.32,1.56,-20.17,5.04,-14.32,2.76,-12.82,6.62,-18.85,9.16,-24.50,5.25,-29.76,6.55,-30.83,3.75,-31.62,-0.74
2013-11-02 01:00,-7.55,-8.51,-9.19,-8.57,-10.86,-8.21,-11.83,-7.35,-13.42,-4.37,-11.17,0.85,-9.64,1.71,-13.18,5.69,-14.81,3.04,-20.77,3.51,-20.40,2.58,-17.84,0.19,-17.55,-1.18
2013-11-02 02:00,-1.25,-1.09,-1.32,-0.48,-3.09,-1.20,-3.24,-0.31,-2.35,0.57,-2.94,2.28,-5.30,2.54,-8.44,4.03,-8.94,0.35,-9.71,0.86,-11.55,2.20,-8.59,0.55,-6.43,-1.53
2013-11-02 03:00,-7.90,-1.12,-9.05,-0.72,-8.91,-0.48,-8.80,-0.13,-3.97,1.15,-1.15,1.13,-8.02,-0.32,-10.71,5.04,-11.46,0.77,-10.34,-1.30,-8.45,0.80,-9.61,-0.57,-10.23,-1.69
2013-11-02 04:00,7.92,6.85,7.15,7.36,6.30,8.15,7.30,7.19,10.50,6.55,12.73,2.40,5.12,2.09,0.97,9.33,-0.34,9.89,2.84,6.43,3.66,5.00,1.74,3.00,1.81,0.94
2013-11-02 05:00,7.70,7.62,6.91,8.54,8.15,9.31,10.77,9.96,17.07,6.14,14.11,-0.22,4.29,-1.16,-1.67,6.91,-3.57,11.36,-6.47,10.94,-1.92,7.04,-1.76,3.97,-4.64,1.69
2013-11-02 06:00,10.79,7.36,9.84,7.40,9.29,7.14,10.23,7.51,14.36,4.33,14.92,-1.24,3.63,-0.31,-1.35,3.25,-1.04,6.88,-2.78,8.25,-5.16,7.47,-3.96,5.11,-3.79,3.07
2013-11-02 07:00,13.76,4.26,12.26,4.76,10.74,6.10,12.99,6.95,18.59,7.00,19.16,0.29,9.43,-3.12,-0.48,2.77,-0.97,6.28,2.03,7.45,-0.89,8.17,-4.59,7.32,-6.63,5.69
2013-11-02 08:00,10.98,5.96,8.55,7.55,8.11,10.54,10.77,11.41,16.13,7.23,12.43,-2.36,1.75,-4.28,-3.67,2.28,-1.13,3.94,-0.70,3.54,-4.88,2.87,-8.77,3.00,-10.47,2.41
2013-11-02 09:00,-0.87,5.58,-2.59,6.12,-3.22,9.06,-2.19,10.92,1.68,10.47,2.83,3.93,-4.21,-4.54,-13.36,-3.10,-13.81,3.53,-9.66,3.58,-12.23,4.19,-16.23,6.17,-15.51,5.12
2013-11-02 10:00,-7.89,5.75,-8.84,7.97,-8.24,10.23,-5.94,9.84,-3.47,6.29,-5.52,0.39,-17.46,-3.34,-25.25,2.43,-25.18,6.93,-21.18,2.77,-22.08,5.53,-23.69,4.96,-22.98,2.88
2013-11-02 11:00,-0.46,2.68,-1.50,3.42,-1.41,6.36,0.35,6.03,1.96,3.68,-1.98,-1.09,-11.96,-2.18,-21.19,5.68,-20.75,7.05,-17.86,6.43,-18.18,6.44,-18.23,5.17,-20.77,4.24
2013-11-02 12:00,,,,,,,,,,,,,,,,,,,,,,,,,,
2013-11-02 14:00,0.08,-1.02,0.43,-0.40,1.46,-0.73,2.06,-2.11,-3.29,-2.30,-15.48,2.11,-15.26,9.67,-14.94,8.93,-18.25,8.50,-28.35,9.24,-32.05,8.39,-26.97,4.44,-24.52,0.98
2013-11-02 15:00,1.70,0.59,2.58,1.88,3.28,0.53,3.55,-1.48,-0.44,-0.65,-10.83,7.30,-14.81,17.91,-15.32,16.41,-16.74,14.86,-16.44,12.35,-18.83,9.79,-17.63,6.70,-14.55,3.21
2013-11-02 16:00,7.95,-0.53,7.46,0.47,8.25,0.60,8.92,-0.98,7.89,-2.11,1.58,-0.80,-3.95,6.88,-4.05,12.67,-8.23,14.18,-10.56,14.34,-12.24,10.74,-7.60,5.83,-5.13,1.55
2013-11-02 17:00,7.25,4.47,8.69,4.88,10.19,2.19,7.35,3.04,1.48,8.64,4.83,17.61,14.17,17.69,16.01,17.08,5.97,16.90,-3.97,18.21,-7.53,12.82,-5.39,7.19,-3.73,3.20
2013-11-02 18:00,14.51,4.89,13.42,5.10,14.51,4.89,12.21,3.50,7.43,6.39,8.44,12.30,12.93,11.51,13.79,13.94,9.60,14.40,4.49,11.90,-1.01,8.24,-1.34,5.03,-1.93,3.09
2013-11-02 19:00,15.98,9.58,16.60,9.96,15.76,9.62,11.63,9.89,10.76,14.01,17.76,13.52,19.65,9.48,18.89,10.31,15.98,11.76,13.22,11.59,3.69,10.00,-1.74,6.06,-3.37,4.86
2013-11-02 20:00,12.46,16.06,10.60,16.36,8.69,16.85,7.57,14.97,5.82,14.88,7.02,16.89,9.53,14.28,10.62,11.58,12.08,12.31,9.64,13.90,7.46,12.44,3.89,14.01,-1.29,12.84
2013-11-02 21:00,3.82,10.25,5.44,9.68,5.58,9.92,3.00,10.95,-0.34,10.62,1.86,11.66,4.34,9.88,7.71,6.48,6.98,1.79,4.02,1.57,1.59,6.80,-0.53,6.92,-3.74,7.98
2013-11-02 22:00,0.24,7.14,-0.36,7.80,-1.66,8.68,-4.51,7.76,-4.72,8.11,-3.46,8.79,1.60,5.66,3.35,-0.08,0.61,-3.57,-3.28,-4.17,-4.09,-0.97,-3.82,0.99,-7.86,1.28
2013-11-02 23:00,-6.09,6.37,-8.13,7.66,-7.51,8.04,-8.92,7.53,-10.56,8.52,-7.77,8.59,-2.45,2.73,-0.41,-2.93,-6.75,-4.75,-9.31,-5.27,-7.83,-1.72,-11.84,-0.07,-14.69,3.69
2013-11-03 00:00,-8.23,4.40,-9.14,5.39,-9.98,5.77,-10.61,6.53,-12.30,8.44,-10.01,6.60,-5.62,-0.36,-8.79,-4.18,-14.72,-3.81,-15.98,-5.21,-20.08,1.84,-21.42,3.22,-19.30,1.64
2013-11-03 01:00,-4.75,0.61,-5.76,1.57,-6.47,1.89,-7.46,2.44,-8.56,3.37,-6.04,0.04,-8.63,-7.26,-17.03,-5.19,-17.80,-6.14,-16.94,-8.40,-21.93,-2.96,-22.95,0.60,-22.22,-0.86
2013-11-03 02:00,-7.52,2.63,-7.56,3.14,-6.34,2.86,-5.44,2.29,-6.30,4.54,-7.86,0.56,-14.20,-3.45,-18.68,-2.34,-19.97,-5.10,-20.82,-2.85,-24.55,3.26,-25.83,5.18,-22.67,6.50
2013-11-03 03:00,3.26,-3.02,2.24,-0.92,1.77,-0.74,1.91,-1.22,3.79,0.57,2.85,-3.03,-3.01,-7.63,-11.17,-2.06,-13.88,-2.73,-18.90,-0.84,-19.05,2.96,-17.08,4.78,-14.03,2.12
2013-11-03 04:00,3.09,-15.13,2.59,-12.68,1.95,-10.05,1.75,-9.38,1.83,-7.48,0.23,-8.05,-6.82,-12.15,-14.78,-10.48,-14.87,-9.46,-17.31,-8.19,-17.18,-8.67,-13.10,-5.84,-11.12,-6.21
2013-11-03 05:00,12.57,-2.12,13.21,0.36,11.48,1.32,12.77,1.89,11.92,-0.95,6.04,2.15,0.59,4.12,-1.58,4.44,-2.64,5.59,-0.80,6.43,2.70,4.73,2.51,2.49,-0.77,1.96
2013-11-03 06:00,11.27,-1.56,10.64,0.97,11.14,2.15,11.54,0.40,9.51,-0.50,5.74,2.48,4.30,2.79,2.05,6.62,1.01,10.28,-3.14,12.41,-5.19,10.48,-2.45,4.92,-0.90,2.76
2013-11-03 07:00,15.46,-2.75,14.93,-0.92,14.46,0.71,14.74,3.39,14.22,0.85,9.01,-0.95,7.55,2.69,6.16,6.45,4.59,8.29,6.09,7.78,3.21,4.77,1.44,1.87,2.17,1.87
2013-11-03 08:00,10.51,-2.92,9.18,-1.53,9.11,1.26,11.99,4.27,12.91,6.51,8.68,5.30,6.60,7.09,9.11,11.04,11.53,13.50,11.53,10.59,5.89,4.50,1.71,5.28,0.43,0.33
2013-11-03 09:00,3.36,-11.00,2.87,-9.27,5.20,-7.25,5.75,-4.80,4.50,1.71,3.44,3.59,5.74,1.02,10.94,-1.86,10.38,0.06,8.37,0.21,5.80,-2.81,3.00,-1.74,-0.55,-0.26
2013-11-03 10:00,-15.17,-4.04,-13.59,-4.11,-11.47,-2.46,-12.24,0.96,-13.89,4.55,-15.13,6.69,-10.67,6.72,-3.99,3.75,-1.64,3.17,-0.64,5.12,-3.68,3.42,-5.43,3.33,-5.44,0.10
2013-11-03 11:00,-9.58,-5.04,-8.07,-4.50,-7.21,-3.52,-8.17,-3.80,-8.35,-2.81,-6.25,-0.34,0.53,2.86,5.71,2.57,6.93,2.30,5.31,4.33,5.15,2.00,3.06,1.29,4.75,3.75
2013-11-03 12:00,-21.31,-12.04,-21.07,-11.76,-19.08,-11.09,-19.45,-13.07,-20.11,-12.22,-18.93,-10.53,-13.88,-6.37,-4.72,-5.31,1.42,-6.04,2.86,-5.63,1.71,-8.14,0.01,-6.55,-0.16,-3.06
2013-11-03 13:00,-21.82,-12.08,-21.69,-11.42,-21.51,-11.68,-21.69,-11.42,-20.21,-10.06,-13.26,-8.90,-5.15,-10.32,-4.33,-11.75,-5.95,-13.36,-6.75,-12.75,-8.20,-12.75,-9.51,-11.46,-9.36,-7.26
2013-11-03 14:00,-13.29,-8.80,-13.81,-8.43,-14.00,-7.03,-14.50,-8.21,-12.53,-7.44,-6.63,-8.45,0.04,-11.74,0.82,-12.66,0.80,-14.75,-0.63,-13.39,-1.17,-15.52,-2.02,-15.45,-0.02,-12.28
2013-11-03 15:00,-10.24,-4.91,-9.14,-5.12,-8.79,-5.64,-8.70,-5.20,-7.36,-4.81,-2.87,-4.15,3.98,-9.16,5.26,-11.08,2.11,-12.81,-0.08,-13.86,-1.13,-13.12,-1.06,-12.27,1.56,-10.16
2013-11-03 16:00,-8.83,-0.76,-8.64,-0.71,-7.55,-0.50,-7.58,-0.41,-6.80,0.13,-3.37,-0.24,3.15,-5.55,5.34,-10.64,6.49,-11.77,4.46,-12.66,3.56,-15.31,3.27,-13.94,1.47,-11.65
2013-11-03 17:00,2.85,4.56,3.55,3.93,3.31,3.34,3.49,3.81,5.22,4.30,9.28,1.00,13.44,-9.88,11.68,-17.15,9.52,-19.43,5.48,-16.95,0.55,-17.53,1.94,-16.19,3.72,-9.34
2013-11-03 18:00,14.36,3.60,13.25,4.22,12.76,4.49,13.43,5.41,14.89,4.68,19.04,0.36,21.18,-9.64,19.52,-15.10,14.19,-16.84,7.00,-13.91,6.26,-14.22,8.16,-12.85,10.16,-9.67
2013-11-03 19:00,16.87,11.91,17.43,11.76,17.21,11.80,17.36,12.37,18.92,10.94,22.04,5.49,23.23,-4.47,17.00,-9.59,10.11,-9.48,5.91,-3.92,4.74,-3.84,8.48,-3.81,9.27,-2.23
2013-11-03 20:00,16.30,14.25,16.68,14.77,16.35,14.47,16.24,14.85,16.50,13.57,17.33,6.32,16.27,2.38,10.29,-2.15,3.67,-1.55,1.55,3.67,0.49,4.82,3.21,4.04,4.83,4.19
2013-11-03 21:00,15.88,8.82,16.60,8.50,16.17,8.90,16.61,10.28,16.14,9.73,16.57,7.87,12.20,0.27,3.78,-4.12,-1.51,-1.27,-0.95,4.41,-2.90,1.77,-0.89,2.03,1.39,2.06
2013-11-03 22:00,6.35,7.96,5.95,8.26,5.99,8.48,5.71,8.40,5.86,8.23,6.24,6.16,2.95,1.68,-5.04,-0.20,-10.69,-0.46,-7.31,4.46,-6.24,2.89,-6.93,3.11,-4.47,2.15
2013-11-03 23:00,,,,,,,,,,,,,,,,,,,,,,,,,,
2013-11-04 00:00,-6.30,-8.15,-5.76,-8.21,-4.37,-7.60,-5.34,-6.42,-6.12,-6.23,-7.85,-6.00,-13.06,-6.34,-23.11,-6.84,-25.64,-6.73,-16.08,-4.51,-10.82,-3.62,-12.18,-3.60,-14.60,-3.15
2013-11-04 01:00,-3.66,-7.92,-3.89,-7.46,-3.93,-7.68,-4.21,-7.45,-5.03,-8.21,-5.56,-7.11,-9.62,-4.53,-18.58,-2.31,-23.36,-0.87,-14.09,-0.92,-7.57,0.64,-7.75,1.63,-8.02,2.59
2013-11-04 02:00,-9.50,-24.57,-8.36,-24.55,-8.38,-24.46,-7.70,-23.95,-8.33,-23.92,-11.78,-20.96,-16.42,-13.13,-15.54,-7.47,-12.08,-7.21,-11.97,-6.14,-14.83,-8.52,-17.83,-10.00,-16.50,-9.93
2013-11-04 03:00,-3.07,-20.13,-3.25,-19.87,-2.95,-20.92,-3.77,-20.22,-4.58,-19.21,-6.43,-13.49,-11.97,-3.23,-12.75,1.65,-7.27,1.04,-4.91,2.23,-1.33,2.11,-1.10,-0.52,1.29,0.58
2013-11-04 04:00,-5.80,-15.71,-5.59,-15.33,-6.39,-14.73,-6.79,-14.43,-6.51,-13.21,-4.66,-9.87,-2.56,2.39,-1.08,13.94,3.49,12.86,6.46,11.21,2.52,7.17,3.87,5.37,10.47,1.96
2013-11-04 05:00,-5.80,-8.43,-4.01,-10.31,-2.81,-10.90,-3.38,-9.60,-4.10,-7.11,-0.77,1.24,9.11,12.49,19.15,15.58,26.37,12.87,29.06,8.96,23.46,3.09,17.65,3.40,14.69,3.90
2013-11-04 06:00,-4.91,-6.09,-4.40,-6.05,-3.52,-6.94,-5.25,-7.44,-5.85,-6.46,-4.59,-2.88,3.57,2.79,17.06,5.10,22.11,1.24,21.70,-0.95,18.46,-2.72,13.53,-4.03,10.55,-2.70
2013-11-04 07:00,4.69,-8.75,3.94,-7.19,4.50,-4.43,5.54,-2.26,6.15,-0.42,12.15,1.51,24.86,4.01,33.26,-0.24,29.56,-1.51,27.12,-3.88,25.42,-8.11,19.94,-8.22,16.69,-3.43
2013-11-04 08:00,5.87,-1.96,5.73,-1.48,5.98,-0.16,5.03,0.61,8.12,1.81,15.48,3.71,28.80,1.50,34.23,-1.84,30.80,-1.47,29.76,-4.37,26.57,-7.78,20.27,-7.19,16.50,-4.94
2013-11-04 09:00,-0.28,5.33,-0.38,4.57,-0.14,2.66,0.34,3.53,2.98,4.49,11.08,5.26,24.20,-0.97,26.65,-3.70,22.33,0.47,20.21,0.28,18.42,-5.12,15.20,-5.11,9.81,-0.83
2013-11-04 10:00,-4.18,3.69,-4.07,3.31,-3.70,2.37,-3.23,3.65,-0.46,3.41,6.15,-0.42,17.69,-9.08,18.67,-12.85,15.65,-7.06,14.99,-4.75,13.73,-6.88,9.17,-6.21,5.13,-3.00
2013-11-04 12:00,-15.52,1.89,-15.01,1.21,-14.90,0.82,-15.19,0.74,-14.59,-0.65,-12.68,-1.14,-7.19,-4.66,-0.55,-15.14,-1.37,-17.35,-3.00,-11.68,-0.24,-7.87,3.82,-3.90,3.66,-2.59
2013-11-04 13:00,-18.17,2.07,-17.93,2.66,-16.88,2.65,-16.20,1.70,-15.99,1.34,-15.21,0.43,-13.64,-2.14,-8.48,-9.61,-6.86,-20.69,-8.21,-17.44,-7.53,-11.83,-3.59,-7.06,0.66,-0.85
2013-11-04 14:00,-14.14,4.68,-14.73,3.47,-13.63,2.54,-13.62,2.86,-12.65,3.13,-11.86,3.99,-10.43,1.90,-8.65,-6.85,-11.48,-18.38,-14.60,-17.29,-10.18,-13.11,-3.32,-8.75,-1.00,-4.86
2013-11-04 15:00,-0.37,-5.62,-0.15,-5.66,0.88,-5.26,1.46,-5.09,1.98,-4.74,2.01,-7.75,-1.73,-17.56,-12.48,-22.51,-20.70,-15.61,-17.20,-10.03,-10.55,-8.54,-5.54,-7.52,-2.19,-6.14
2013-11-04 16:00,4.82,-2.67,5.18,-1.74,6.24,-1.44,7.13,-0.56,6.94,0.12,6.58,-3.00,2.81,-10.53,-6.57,-13.01,-14.10,-7.06,-12.82,1.53,-6.36,0.78,-1.54,-1.90,3.83,-0.67
2013-11-04 17:00,,,,,,,,,,,,,,,,,,,,,,,,,,
2013-11-04 18:00,9.71,-2.31,10.24,-1.95,10.36,-1.30,10.17,-2.08,10.19,-2.17,6.47,-4.07,-3.79,-2.02,-12.93,4.09,-12.58,8.67,-3.73,3.20,1.79,-1.15,6.40,-0.56,7.69,0.75
2013-11-04 19:00,19.56,0.72,20.59,0.39,21.26,0.58,21.06,0.94,21.07,0.53,17.02,-0.22,8.32,5.09,2.40,14.11,5.40,15.28,11.36,8.98,12.10,4.61,12.81,6.48,13.23,7.54
2013-11-04 20:00,16.51,1.20,16.25,1.02,17.03,0.83,17.06,0.73,16.73,0.43,13.94,1.08,8.85,6.49,8.21,15.98,12.53,14.72,12.24,9.54,12.56,4.43,11.38,3.47,13.14,5.33
2013-11-04 21:00,16.45,2.12,16.48,2.02,16.55,2.87,16.74,2.20,16.95,1.84,15.81,4.01,13.82,13.12,17.52,20.52,18.48,13.93,14.50,8.21,11.53,4.76,16.37,6.05,17.15,6.58
2013-11-04 22:00,8.89,6.71,8.81,6.27,9.11,6.67,8.81,5.54,8.43,6.16,7.12,8.18,7.39,15.23,10.19,19.98,11.88,13.71,7.37,8.04,5.76,6.75,8.07,10.32,7.57,10.60
2013-11-04 23:00,-5.31,-4.33,-4.09,-5.33,-4.75,-5.21,-4.40,-6.05,-4.94,-5.99,-4.61,-3.51,-2.61,1.85,3.91,6.32,6.25,1.79,0.21,-4.73,0.58,-2.75,1.03,3.31,-0.33,2.61
2013-11-05 00:00,-13.03,-4.98,-12.69,-5.09,-11.99,-5.00,-11.88,-4.65,-12.44,-5.23,-11.92,-4.87,-9.38,-2.48,1.69,1.73,6.41,0.49,-0.18,-3.38,-0.72,-5.10,0.29,-4.29,0.91,-1.72
2013-11-05 01:00,-11.77,-0.67,-11.55,0.02,-11.26,-0.63,-11.36,-0.66,-11.08,-0.89,-10.96,-0.96,-8.34,1.15,2.91,4.37,10.78,1.95,6.36,-0.78,4.45,-3.92,5.14,-3.42,5.71,-0.34
2013-11-05 02:00,-19.05,-5.05,-19.24,-5.10,-19.34,-5.13,-19.31,-5.22,-19.24,-5.10,-19.24,-5.10,-18.07,-5.18,-9.60,-3.90,0.86,-5.89,1.82,-8.53,-0.87,-9.30,-0.72,-11.65,1.82,-9.26